| time (UTC) | temp F | wind direction | speed MPH | gust MPH | rain 1hr in | rain 24hr in | rain mn in | humidity % | barometer mb |
| 20260903074637 | 78 | 223 | 3.0 | 4.0 | 0.00 | 0.00 | 0.00 | 87 | 1016.2 |
| 20260903073116 | 78 | 222 | 3.0 | 4.0 | 0.00 | 0.00 | 0.00 | 87 | 1016.2 |
| 20260903071605 | 78 | 222 | 2.0 | 4.0 | 0.00 | 0.00 | 0.00 | 87 | 1016.0 |
| 20260903070115 | 78 | 222 | 2.0 | 4.0 | 0.00 | 0.00 | 0.00 | 87 | 1015.9 |
| 20260903064603 | 79 | 222 | 3.0 | 5.0 | 0.00 | 0.00 | 0.00 | 87 | 1016.1 |
| 20260903063109 | 79 | 209 | 4.0 | 5.0 | 0.00 | 0.00 | 0.00 | 86 | 1016.0 |
| 20260903061610 | 79 | 205 | 2.0 | 5.0 | 0.00 | 0.00 | 0.00 | 87 | 1016.0 |
| 20260903060100 | 79 | 209 | 4.0 | 5.0 | 0.00 | 0.00 | 0.00 | 87 | 1015.9 |
| 20260903054606 | 79 | 204 | 3.0 | 5.0 | 0.00 | 0.00 | 0.00 | 86 | 1016.0 |
| 20260903053101 | 80 | 213 | 4.0 | 6.0 | 0.00 | 0.00 | 0.00 | 85 | 1015.9 |
| 20260903051604 | 79 | 200 | 3.0 | 5.0 | 0.00 | 0.00 | 0.00 | 86 | 1015.8 |
| 20260903050106 | 79 | 180 | 3.0 | 6.0 | 0.00 | 0.00 | 0.00 | 87 | 1015.9 |
| 20260903044602 | 80 | 192 | 4.0 | 7.0 | 0.00 | 0.00 | 0.00 | 85 | 1015.7 |
| 20260903043106 | 81 | 196 | 4.0 | 7.0 | 0.00 | 0.00 | 0.00 | 84 | 1015.7 |
| 20260903041613 | 82 | 189 | 3.0 | 5.0 | 0.00 | 0.00 | 0.00 | 82 | 1015.8 |
| 20260903040105 | 82 | 202 | 2.0 | 4.0 | 0.00 | 0.00 | 0.00 | 81 | 1015.9 |
| 20260903034600 | 82 | 202 | 2.0 | 4.0 | 0.00 | 0.00 | 0.00 | 80 | 1015.9 |
| 20260903033106 | 83 | 202 | 3.0 | 4.0 | 0.00 | 0.00 | 0.00 | 79 | 1016.0 |
| 20260903031611 | 84 | 202 | 3.0 | 5.0 | 0.00 | 0.00 | 0.00 | 77 | 1016.2 |
| 20260903030105 | 84 | 215 | 3.0 | 5.0 | 0.00 | 0.00 | 0.00 | 75 | 1016.2 |
| 20260903024602 | 85 | 214 | 3.0 | 5.0 | 0.00 | 0.00 | 0.00 | 74 | 1016.2 |
| 20260903023101 | 85 | 213 | 3.0 | 5.0 | 0.00 | 0.00 | 0.00 | 73 | 1016.2 |
| 20260903021601 | 85 | 198 | 3.0 | 5.0 | 0.00 | 0.00 | 0.00 | 72 | 1016.2 |
| 20260903020100 | 86 | 187 | 2.0 | 4.0 | 0.00 | 0.00 | 0.00 | 71 | 1016.3 |
| 20260903014622 | 86 | 187 | 3.0 | 5.0 | 0.00 | 0.00 | 0.00 | 71 | 1016.2 |
| 20260903013106 | 86 | 182 | 3.0 | 7.0 | 0.00 | 0.00 | 0.00 | 71 | 1016.0 |
| 20260903011621 | 86 | 171 | 5.0 | 9.0 | 0.00 | 0.00 | 0.00 | 71 | 1015.9 |
| 20260903010112 | 87 | 169 | 5.0 | 8.0 | 0.00 | 0.00 | 0.00 | 68 | 1015.8 |
| 20260903004607 | 88 | 171 | 5.0 | 8.0 | 0.00 | 0.00 | 0.00 | 67 | 1015.6 |
| 20260903003130 | 88 | 183 | 4.0 | 8.0 | 0.00 | 0.00 | 0.00 | 67 | 1015.6 |
| 20260903001604 | 88 | 188 | 4.0 | 7.0 | 0.00 | 0.00 | 0.00 | 67 | 1015.7 |
| 20260903000109 | 89 | 211 | 5.0 | 9.0 | 0.00 | 0.00 | 0.00 | 64 | 1015.9 |
| 20260902234610 | 89 | 189 | 4.0 | 8.0 | 0.00 | 0.00 | 0.00 | 64 | 1016.0 |
| 20260902233103 | 90 | 169 | 3.0 | 7.0 | 0.00 | 0.00 | 0.00 | 63 | 1016.0 |
| 20260902231600 | 92 | 217 | 4.0 | 8.0 | 0.00 | 0.00 | 0.00 | 60 | 1016.0 |
| 20260902230105 | 92 | 243 | 5.0 | 8.0 | 0.00 | 0.00 | 0.00 | 60 | 1016.1 |
| 20260902224618 | 92 | 226 | 4.0 | 7.0 | 0.00 | 0.00 | 0.00 | 59 | 1016.3 |
| 20260902223058 | 92 | 229 | 7.0 | 11.0 | 0.00 | 0.00 | 0.00 | 58 | 1016.2 |
| 20260902221605 | 92 | 221 | 5.0 | 11.0 | 0.00 | 0.00 | 0.00 | 59 | 1016.3 |
| 20260902220116 | 92 | 233 | 3.0 | 11.0 | 0.00 | 0.00 | 0.00 | 59 | 1016.4 |
| 20260902214559 | 92 | 228 | 6.0 | 13.0 | 0.00 | 0.00 | 0.00 | 59 | 1016.3 |
| 20260902213106 | 93 | 249 | 5.0 | 11.0 | 0.00 | 0.00 | 0.00 | 59 | 1016.3 |
| 20260902211603 | 93 | 222 | 4.0 | 11.0 | 0.00 | 0.00 | 0.00 | 59 | 1016.4 |
| 20260902210109 | 92 | 198 | 6.0 | 12.0 | 0.00 | 0.00 | 0.00 | 60 | 1016.4 |
| 20260902204605 | 92 | 214 | 7.0 | 13.0 | 0.00 | 0.00 | 0.00 | 59 | 1016.5 |
| 20260902203118 | 92 | 236 | 7.0 | 14.0 | 0.00 | 0.00 | 0.00 | 59 | 1016.6 |
| 20260902201604 | 92 | 167 | 6.0 | 13.0 | 0.00 | 0.00 | 0.00 | 61 | 1016.6 |
| 20260902200106 | 92 | 196 | 6.0 | 12.0 | 0.00 | 0.00 | 0.00 | 60 | 1016.7 |
| 20260902194605 | 92 | 255 | 5.0 | 14.0 | 0.00 | 0.00 | 0.00 | 58 | 1016.9 |
| 20260902193107 | 92 | 267 | 5.0 | 12.0 | 0.00 | 0.00 | 0.00 | 59 | 1017.0 |
| 20260902191606 | 92 | 197 | 6.0 | 16.0 | 0.00 | 0.00 | 0.00 | 61 | 1017.1 |
| 20260902190112 | 91 | 177 | 5.0 | 10.0 | 0.00 | 0.00 | 0.00 | 61 | 1017.2 |
| 20260902184602 | 91 | 278 | 8.0 | 14.0 | 0.00 | 0.00 | 0.00 | 61 | 1017.4 |
| 20260902183107 | 91 | 155 | 3.0 | 12.0 | 0.00 | 0.00 | 0.00 | 61 | 1017.3 |
| 20260902181605 | 91 | 211 | 3.0 | 12.0 | 0.00 | 0.00 | 0.00 | 62 | 1017.6 |
| 20260902174610 | 90 | 165 | 6.0 | 14.0 | 0.00 | 0.00 | 0.00 | 62 | 1017.8 |
| 20260902173103 | 90 | 188 | 7.0 | 14.0 | 0.00 | 0.00 | 0.00 | 64 | 1017.9 |
| 20260902171606 | 90 | 161 | 3.0 | 12.0 | 0.00 | 0.00 | 0.00 | 66 | 1018.0 |
| 20260902170106 | 89 | 191 | 7.0 | 11.0 | 0.00 | 0.00 | 0.00 | 66 | 1018.3 |
| 20260902164610 | 89 | 178 | 4.0 | 9.0 | 0.00 | 0.00 | 0.00 | 67 | 1018.3 |
| 20260902163113 | 89 | 235 | 3.0 | 11.0 | 0.00 | 0.00 | 0.00 | 67 | 1018.4 |
| 20260902161601 | 88 | 188 | 6.0 | 11.0 | 0.00 | 0.00 | 0.00 | 66 | 1018.5 |
| 20260902160121 | 88 | 244 | 6.0 | 9.0 | 0.00 | 0.00 | 0.00 | 69 | 1018.6 |
| 20260902154605 | 87 | 245 | 5.0 | 8.0 | 0.00 | 0.00 | 0.00 | 73 | 1018.7 |
| 20260902153108 | 86 | 177 | 2.0 | 5.0 | 0.00 | 0.00 | 0.00 | 76 | 1018.8 |
| 20260902151609 | 85 | 0 | 3.0 | 5.0 | 0.00 | 0.00 | 0.00 | 76 | 1018.7 |
| 20260902150104 | 84 | 248 | 3.0 | 8.0 | 0.00 | 0.00 | 0.00 | 77 | 1018.8 |
| 20260902144600 | 83 | 223 | 3.0 | 5.0 | 0.00 | 0.00 | 0.00 | 80 | 1018.8 |
| 20260902143109 | 82 | 244 | 2.0 | 6.0 | 0.00 | 0.00 | 0.00 | 81 | 1018.9 |
| 20260902141600 | 80 | 244 | 2.0 | 4.0 | 0.00 | 0.00 | 0.00 | 82 | 1018.8 |
| 20260902140106 | 79 | 239 | 2.0 | 4.0 | 0.00 | 0.00 | 0.00 | 84 | 1018.7 |
| 20260902134611 | 78 | 238 | 2.0 | 5.0 | 0.00 | 0.00 | 0.00 | 85 | 1018.8 |
| 20260902133108 | 78 | 252 | 3.0 | 6.0 | 0.00 | 0.00 | 0.00 | 85 | 1018.9 |
| 20260902131607 | 77 | 0 | 1.0 | 3.0 | 0.00 | 0.00 | 0.00 | 87 | 1018.8 |
| 20260902130104 | 76 | 225 | 0.0 | 4.0 | 0.00 | 0.00 | 0.00 | 89 | 1018.7 |
| 20260902124603 | 75 | 225 | 1.0 | 4.0 | 0.00 | 0.00 | 0.00 | 90 | 1018.8 |
| 20260902123104 | 74 | 203 | 1.0 | 4.0 | 0.00 | 0.00 | 0.00 | 92 | 1018.5 |
| 20260902121602 | 73 | 198 | 2.0 | 5.0 | 0.00 | 0.00 | 0.00 | 93 | 1018.4 |
| 20260902120104 | 72 | 179 | 3.0 | 6.0 | 0.00 | 0.00 | 0.00 | 94 | 1018.3 |
| 20260902114603 | 73 | 202 | 3.0 | 5.0 | 0.00 | 0.00 | 0.00 | 92 | 1018.1 |
| 20260902113106 | 74 | 211 | 3.0 | 4.0 | 0.00 | 0.00 | 0.00 | 91 | 1018.0 |
| 20260902111602 | 74 | 211 | 3.0 | 4.0 | 0.00 | 0.00 | 0.00 | 91 | 1017.8 |
| 20260902110104 | 74 | 211 | 3.0 | 4.0 | 0.00 | 0.00 | 0.00 | 89 | 1017.8 |
| 20260902104624 | 75 | 211 | 2.0 | 4.0 | 0.00 | 0.00 | 0.00 | 88 | 1017.7 |
| 20260902103104 | 75 | 211 | 3.0 | 4.0 | 0.00 | 0.00 | 0.00 | 88 | 1017.7 |
| 20260902101606 | 75 | 211 | 2.0 | 4.0 | 0.00 | 0.00 | 0.00 | 87 | 1017.8 |
| 20260902100128 | 76 | 211 | 3.0 | 5.0 | 0.00 | 0.00 | 0.00 | 85 | 1017.7 |
| 20260902094606 | 76 | 211 | 3.0 | 4.0 | 0.00 | 0.00 | 0.00 | 86 | 1017.5 |
| 20260902093125 | 76 | 211 | 2.0 | 4.0 | 0.00 | 0.00 | 0.00 | 86 | 1017.4 |
| 20260902091624 | 75 | 211 | 3.0 | 5.0 | 0.00 | 0.00 | 0.00 | 86 | 1017.4 |
| 20260902090106 | 75 | 211 | 2.0 | 4.0 | 0.00 | 0.00 | 0.00 | 90 | 1017.4 |
| 20260902084608 | 75 | 204 | 2.0 | 3.0 | 0.00 | 0.00 | 0.00 | 90 | 1017.2 |
| 20260902083111 | 76 | 204 | 2.0 | 4.0 | 0.00 | 0.00 | 0.00 | 88 | 1017.1 |
| 20260902081619 | 76 | 204 | 4.0 | 5.0 | 0.00 | 0.00 | 0.00 | 85 | 1016.9 |
| 20260902080107 | 76 | 203 | 3.0 | 5.0 | 0.00 | 0.00 | 0.00 | 85 | 1016.8 |